sat.trackr.live / text

‹ back to catalog

BRO-20

NORAD 66674 · 2025-276J

PAYLOAD ACTIVE UNKNOWN

§ Identity

Operator
Country
FR
Launch date
2025-11-28
Launch site
AFWTR
Launch vehicle
Mass (kg)
RCS (m²)

External: N2YO · Heavens-Above · Gunter

§ Orbital elements

Epoch: 2026-09-20T10:52:14.586240Z

Period
94.82 min
Inclination
97.4089°
Eccentricity
0.0007224
Mean motion
15.18649369 rev/d
Perigee alt
504.9 km
Apogee alt
514.9 km
Semi-major
6,888.1 km
B*
8.3463e-5
RAAN
334.6818°
Arg perigee
43.7726°
Mean anomaly
316.4080°
Rev number
4,485

§ Raw data

BRO-201 66674U 25276J   26263.45294660  .00001662  00000+0  83463-4 0  99982 66674  97.4089 334.6818 0007224  43.7726 316.4080 15.18649369 44850

JSON: /api/v1/satellites/66674 · /tle

For live sub-satellite position, see the globe view (requires WebGL).

§ Visibility from observer

Set your observer location to see the next 7 days of passes ≥ 10°. The values pass through the URL so the page stays shareable.

No JS? Fill the form by hand. The geolocation button needs JavaScript.

§ Radio — SatNOGS DB

ModeDescriptionDownlinkUplink
FM Telemetry 401.910 MHz

1 transmitter · refreshed weekly from db.satnogs.org